Wind_Speed
5 5 4 4 3 4 3 3 4 4 5 6 7 7 6 7 7 8 9 10 11 11 11 11 9 9 8 5 4 3 3 4 3 2 3 4 5 7 10 9 7 6 5 4 4 4 3 2 2 2 1 1 1 2 1 1 2 1 3 3 2 1 1 2 4 4 4 3 3 2 2 2 3 3 3 3 3 3 3 2 2 1 1 2 2
5 5 4 3 3 3 2 3 3 3 4 5 6 5 6 7 7 7 9 10 10 10 11 10 9 10 10 8 5 3 3 4 5 3 1 3 5 5 8 10 9 7 6 6 6 5 4 3 3 3 2 1 1 1 1 1 1 0 1 2 2 1 0 1 2 3 4 4 4 4 3 4 4 3 3 4 3 3 4 4 3 2 3 3 3
5 5 4 3 3 2 2 2 2 3 4 5 5 5 5 6 5 7 7 7 8 10 10 9 8 9 10 10 9 6 4 6 5 3 2 1 4 4 5 10 10 8 6 6 6 6 5 3 3 3 2 1 1 0 1 1 1 1 2 2 2 2 1 1 2 2 4 5 5 5 4 5 5 5 5 5 5 5 5 5 5 5 5 5 5
5 5 3 3 2 2 2 1 1 2 3 4 4 4 5 5 6 7 6 5 6 8 9 8 8 9 8 8 8 9 5 5 5 3 2 1 1 3 4 7 9 9 8 7 7 6 6 5 4 3 2 2 1 1 2 2 2 3 3 2 3 3 2 3 3 2 4 5 5 5 5 6 6 6 7 7 7 7 7 7 7 6 7 7 6
6 4 3 2 2 2 2 2 1 2 2 3 3 4 5 5 6 5 5 4 4 6 9 7 6 7 7 6 7 9 5 4 5 3 3 3 2 1 2 4 6 9 9 8 8 7 7 6 6 5 5 4 2 2 4 4 3 3 4 3 4 4 3 5 4 3 4 4 5 5 5 6 7 7 8 9 8 8 9 9 9 9 9 8 8
6 5 4 3 2 2 1 2 1 1 2 3 4 5 5 5 6 5 4 4 4 6 7 5 5 5 5 5 7 8 5 3 5 5 5 4 3 1 1 3 6 9 7 7 8 9 9 8 7 7 7 5 4 4 5 4 3 4 4 4 5 5 5 6 5 5 5 5 5 4 5 5 6 7 8 9 9 10 10 11 11 11 10 9 9
6 5 4 4 3 2 1 1 1 1 2 3 5 6 6 6 6 6 5 5 6 6 4 3 4 3 3 4 7 8 4 2 5 6 5 5 4 1 1 3 7 8 6 5 8 10 9 8 8 8 8 7 6 6 6 4 4 5 5 5 5 6 7 7 7 7 7 7 6 6 6 6 6 8 8 8 9 10 11 12 12 12 11 10 10
7 5 5 4 4 3 2 2 0 1 2 4 6 7 8 8 7 6 5 6 6 4 2 3 4 2 1 2 6 7 2 2 5 5 4 5 4 2 2 3 5 6 5 5 5 8 9 9 10 9 9 8 7 7 6 5 6 7 6 6 6 7 8 8 9 9 9 9 7 8 8 7 7 8 9 9 10 12 13 13 13 12 11 11 10
7 6 5 5 5 4 3 2 1 1 2 4 5 7 8 8 6 5 4 5 5 4 3 2 3 2 1 1 5 6 1 2 5 5 4 5 4 3 2 3 4 4 4 3 4 5 8 10 10 10 10 9 8 7 7 8 8 7 7 7 8 8 8 9 10 11 11 10 9 9 10 9 9 10 10 12 12 13 14 15 14 12 12 11 11
8 7 6 6 5 5 4 3 1 1 3 4 5 6 6 6 5 4 3 4 4 4 2 1 1 1 2 3 5 5 1 3 6 6 5 4 4 3 2 3 4 4 4 3 4 5 6 8 7 8 9 10 9 8 9 10 9 9 10 9 10 9 9 10 11 13 13 11 9 9 10 10 11 12 12 13 14 14 15 16 16 14 13 13 12
9 8 7 7 6 5 4 3 1 2 3 4 5 5 5 5 4 2 2 4 3 3 2 1 0 1 2 4 5 3 2 3 6 8 7 5 4 3 2 3 4 4 5 5 4 5 7 7 5 4 7 9 8 7 8 9 9 10 11 11 11 10 10 11 13 14 13 11 10 9 9 10 11 12 13 14 14 14 15 17 17 16 15 14 14
10 9 8 7 7 6 4 3 2 2 3 4 5 4 5 4 2 2 3 3 3 3 2 2 2 1 2 2 3 1 2 3 6 8 8 6 4 3 1 3 4 4 5 6 7 7 7 6 6 6 6 8 7 6 7 7 8 9 10 11 11 11 12 14 14 14 13 12 12 11 11 11 11 12 13 13 14 14 15 16 17 18 18 17 16
11 10 9 9 8 7 5 4 3 3 4 4 4 4 4 3 2 3 2 1 1 2 2 3 4 3 2 1 0 1 3 4 5 7 8 6 4 2 1 1 3 4 4 6 7 8 8 6 6 7 7 7 7 8 9 9 9 10 11 11 11 12 14 15 14 13 13 12 12 12 13 13 12 12 12 13 14 14 14 15 16 18 19 19 18
12 11 11 10 9 8 6 5 4 4 4 3 3 4 4 3 3 3 1 0 1 1 2 4 4 4 3 3 3 3 5 5 6 8 8 7 6 4 2 2 2 4 5 6 5 5 6 6 7 8 8 8 7 8 9 10 11 11 12 13 13 14 14 14 13 13 13 12 11 11 12 13 12 12 13 13 13 14 14 14 15 15 17 18 19
13 12 12 11 10 9 7 5 4 4 3 2 3 5 4 3 3 2 1 0 1 2 3 3 3 3 3 4 5 5 6 6 7 8 7 7 7 5 3 2 2 4 5 5 4 4 4 5 7 8 8 9 8 8 9 10 11 11 12 14 14 15 15 15 15 15 15 15 14 13 12 13 14 13 14 15 15 15 15 15 15 15 15 16 17
14 13 13 12 11 9 8 6 5 3 2 4 6 6 6 4 3 3 2 0 1 2 2 2 2 3 4 4 6 6 6 6 7 8 8 8 7 6 3 2 1 3 4 4 3 3 1 2 3 5 7 8 9 9 9 9 10 10 11 12 13 14 15 16 16 17 18 18 17 17 16 16 16 16 16 17 17 17 17 17 17 17 16 16 17
15 14 13 13 12 10 8 7 5 3 4 6 8 8 7 5 4 4 2 1 1 2 2 2 1 1 2 4 5 5 5 6 7 6 7 7 7 6 4 2 1 3 4 4 4 3 1 0 0 2 4 5 7 8 9 8 8 8 9 9 11 12 13 14 15 15 17 17 18 18 18 17 17 17 17 17 18 18 18 18 18 18 18 18 18
15 15 14 14 13 11 9 8 6 4 6 8 9 9 8 6 5 4 2 2 2 2 3 2 2 1 1 2 3 4 5 6 6 5 5 6 6 6 4 2 2 3 3 4 5 4 3 1 0 1 2 3 5 5 6 6 6 6 6 7 8 9 10 11 12 13 13 14 15 15 15 15 15 15 16 16 16 16 17 17 18 18 18 19 19
16 16 15 15 14 12 11 9 7 6 9 10 10 9 8 7 6 4 3 3 3 3 3 3 4 4 3 2 1 3 4 4 5 5 5 6 5 5 4 3 2 3 4 5 6 6 4 2 1 1 1 1 2 2 2 3 3 3 4 5 6 7 8 9 9 10 11 11 11 11 11 12 12 12 13 14 14 15 15 16 16 17 18 18 19
17 17 17 16 15 13 12 10 8 9 11 12 12 10 9 8 7 5 4 4 4 4 4 4 5 5 5 4 2 3 3 3 4 3 2 4 3 3 3 3 3 3 4 5 6 6 5 3 3 2 1 1 2 2 3 3 3 4 4 5 6 6 7 7 8 9 9 10 10 10 10 10 11 11 11 12 13 14 14 15 15 16 17 17 18
18 18 18 17 16 15 13 12 10 11 12 13 14 12 11 10 8 6 5 4 4 4 4 4 5 6 5 4 3 3 3 3 3 2 1 2 2 1 1 2 3 3 4 6 7 7 8 6 5 4 4 3 3 4 5 5 5 5 5 7 7 7 6 7 8 8 9 9 9 10 10 11 11 11 11 11 12 13 14 14 14 15 16 16 17
17 18 18 17 17 16 15 13 12 12 14 15 16 14 12 11 9 7 6 4 4 4 5 6 6 6 6 5 4 4 3 3 2 2 1 1 1 0 2 3 3 4 5 7 8 9 9 8 7 6 4 4 4 5 5 5 6 6 7 8 8 8 9 8 8 9 9 9 10 10 11 11 11 12 12 12 12 12 13 14 14 14 14 15 15
15 16 16 16 17 17 16 15 14 14 16 17 17 16 14 12 10 9 7 5 4 4 5 6 6 7 7 6 6 5 4 3 2 2 2 1 1 1 2 3 4 5 6 7 9 9 9 9 8 8 7 5 5 6 5 6 7 8 8 9 10 10 10 10 10 10 11 11 11 11 12 12 13 13 13 13 13 13 13 14 14 14 14 14 14
11 12 13 15 17 17 17 16 15 15 18 19 19 17 15 14 12 11 9 6 5 4 4 5 5 6 6 6 6 6 5 5 4 3 3 3 2 2 3 4 5 6 6 7 8 9 9 9 9 10 10 8 8 7 6 7 9 10 11 12 12 12 12 12 12 12 12 12 12 13 13 14 14 14 14 14 14 14 14 14 14 14 14 13 14
10 9 10 13 16 17 17 17 16 17 20 21 21 19 16 15 14 13 10 8 6 4 3 3 4 4 5 6 6 6 6 5 5 4 4 3 3 4 4 5 5 5 6 7 7 8 9 9 10 10 11 11 11 10 10 10 11 13 14 14 14 14 15 14 14 13 13 12 12 13 14 15 15 16 15 14 14 14 14 13 13 13 13 13 13
11 10 11 13 16 17 18 17 17 19 22 23 22 20 18 17 16 14 12 10 7 5 3 1 2 3 4 5 6 7 7 7 6 5 4 3 3 4 5 5 5 6 6 6 7 7 9 10 10 10 12 12 12 12 13 13 14 15 17 17 16 16 16 16 15 14 14 13 13 13 14 14 15 15 15 15 15 14 14 14 13 13 13 13 13
13 13 14 16 17 18 20 19 19 21 23 24 24 22 20 19 17 15 13 11 9 7 4 3 2 3 4 5 6 7 8 8 8 7 6 5 4 3 4 5 6 6 6 7 7 8 8 9 10 10 11 11 12 12 13 14 16 17 19 19 18 18 18 17 16 16 15 14 14 14 14 15 15 15 15 15 15 15 15 15 15 15 15 15 14
15 15 16 18 19 20 21 21 21 23 25 26 25 24 23 21 19 17 15 13 11 9 7 6 5 5 6 6 7 8 8 9 9 9 8 8 7 6 5 5 5 5 6 7 8 9 9 9 10 10 10 10 11 12 13 14 15 16 18 18 17 18 19 19 18 17 16 15 15 15 15 16 16 16 16 16 16 16 17 17 17 17 17 17 17
17 17 18 18 20 22 23 23 23 24 26 27 27 26 25 24 22 19 17 15 13 11 10 9 8 7 8 8 9 9 10 10 10 10 10 10 9 9 8 7 6 6 6 7 8 9 10 10 11 11 10 11 12 13 14 14 14 14 15 15 16 17 18 19 20 19 18 17 17 17 17 18 18 18 19 19 19 20 20 20 20 20 20 20 19
19 19 18 18 20 23 24 25 26 26 27 29 29 28 27 26 24 21 19 18 15 13 12 11 10 10 10 10 11 11 11 11 11 11 11 11 11 11 10 10 9 8 8 8 9 10 11 11 12 12 12 13 14 15 16 16 16 15 14 14 15 16 17 18 19 19 19 19 19 20 20 20 20 20 20 21 22 22 23 24 24 23 23 23 23
21 20 19 19 19 21 24 26 27 28 29 30 30 30 28 27 25 24 22 20 17 15 14 13 13 12 12 12 12 12 13 13 13 13 12 12 12 13 12 12 12 11 11 11 11 11 12 13 14 14 15 15 16 17 18 18 18 18 17 16 16 17 17 17 18 18 19 20 21 22 22 22 22 22 23 23 24 24 25 26 26 26 25 25 25
23 22 21 20 20 20 23 26 27 29 30 31 32 31 30 29 27 26 24 22 20 18 17 16 15 14 14 14 14 14 14 15 14 14 14 14 14 14 14 14 14 14 13 14 14 14 14 16 17 17 17 17 18 19 20 20 19 19 19 18 18 18 19 19 19 19 19 20 21 22 23 24 25 25 25 25 25 26 27 27 28 27 27 27 27
25 24 23 22 21 20 22 25 27 29 32 32 33 33 32 30 29 28 26 24 22 20 19 19 18 16 16 15 15 16 16 16 15 15 15 15 15 16 16 15 15 15 15 15 15 16 17 17 18 19 19 18 18 19 19 19 18 19 19 19 19 19 19 20 21 21 20 21 22 23 23 25 26 26 26 27 27 27 28 28 29 28 29 29 29
27 26 25 24 23 22 23 25 27 29 32 34 34 34 33 31 30 29 28 26 24 23 22 21 20 19 18 17 17 18 18 17 17 17 16 16 16 16 16 16 16 16 16 16 16 17 18 18 19 20 20 19 18 18 18 18 19 20 20 20 20 20 20 21 23 23 24 25 25 25 25 26 26 27 27 28 28 29 30 30 30 30 30 30 30
30 28 27 25 25 24 24 25 26 29 32 35 35 35 34 33 32 31 30 28 26 25 24 22 22 21 20 20 19 19 19 19 19 18 18 17 16 16 16 16 16 17 17 17 18 17 18 19 19 20 20 19 19 18 17 18 20 20 21 21 21 21 21 22 23 25 27 27 27 28 28 27 27 27 27 28 29 30 31 31 31 31 32 32 30
32 31 29 28 27 27 26 27 27 28 32 35 36 36 35 34 33 32 31 30 29 28 26 25 24 23 22 22 21 21 21 21 21 20 20 18 18 17 17 17 16 17 18 18 19 20 19 20 20 21 21 20 20 20 20 20 20 20 21 22 22 21 22 23 24 26 27 28 29 30 29 28 27 27 27 28 29 31 31 32 32 32 33 32 31
34 33 32 31 29 29 29 28 28 28 31 35 37 37 35 34 34 34 33 32 31 30 29 27 26 25 24 24 23 23 22 22 22 22 21 20 19 19 18 17 17 18 19 19 20 20 21 21 22 22 23 23 23 23 23 22 22 22 23 23 23 23 24 25 26 26 26 28 29 30 30 29 27 27 27 28 29 31 32 32 33 33 32 32 31
35 34 33 32 32 31 30 30 29 29 30 34 37 38 36 36 35 35 34 33 32 32 31 29 28 27 26 25 25 25 24 22 22 23 24 23 22 20 19 18 18 18 19 20 20 20 21 22 23 23 24 24 25 24 23 22 22 23 23 23 24 24 25 25 26 26 27 27 28 30 30 29 28 27 27 28 30 31 32 32 32 33 33 33 33
33 34 34 34 33 33 32 32 31 30 30 34 37 38 38 37 37 36 36 35 34 33 33 31 30 29 28 27 27 26 25 24 23 24 25 24 24 22 20 19 19 19 21 21 21 21 21 22 23 23 23 24 25 24 23 22 21 22 23 23 23 24 25 25 25 26 27 27 27 29 29 28 28 28 28 28 29 30 30 31 31 32 34 35 36
28 30 31 33 34 34 34 33 33 31 31 33 37 38 38 38 38 38 37 36 36 35 34 33 32 31 30 29 29 28 26 25 24 25 26 25 25 24 22 21 21 21 22 24 23 22 22 23 22 22 23 25 25 24 23 22 21 22 23 23 24 25 25 25 25 26 26 27 27 27 28 27 27 28 28 28 28 28 29 30 32 34 35 35 36
24 26 27 29 32 35 35 35 34 33 32 34 37 38 38 39 39 39 39 38 37 37 35 34 34 33 32 31 31 30 28 26 26 27 27 26 26 25 24 23 23 23 24 25 25 24 24 24 23 23 23 25 25 25 24 23 22 22 23 24 24 24 24 24 24 25 25 25 25 25 27 27 26 27 28 28 28 29 31 32 33 34 36 36 36
24 24 25 27 30 33 35 36 36 35 34 34 36 37 38 39 40 40 39 39 39 38 37 36 35 35 34 33 32 31 30 28 27 28 29 27 26 27 26 24 24 24 25 26 26 25 25 25 24 23 23 24 25 25 23 22 23 23 23 24 24 23 23 22 22 24 24 23 24 25 26 27 26 27 28 29 30 32 33 34 33 34 36 37 36
25 25 25 26 28 31 35 36 37 37 35 34 36 37 38 39 40 40 40 40 40 40 39 38 37 37 36 35 34 34 32 31 29 29 30 29 27 28 29 26 24 25 25 26 26 26 26 25 24 24 24 24 25 25 22 22 24 24 24 25 25 23 22 21 22 24 24 23 25 27 27 27 28 28 29 30 31 31 32 34 33 33 35 35 34
27 26 27 27 27 29 33 35 37 38 37 35 35 37 38 39 40 41 41 41 41 42 41 40 39 38 37 36 36 36 35 33 30 30 30 30 29 29 30 29 27 26 26 26 26 26 26 26 25 25 24 25 24 23 22 23 25 24 24 25 24 22 21 21 21 22 24 25 26 27 28 28 29 29 28 29 29 29 31 31 31 31 33 33 32
29 29 30 29 28 29 31 34 37 38 38 36 35 36 38 39 41 42 43 43 43 43 43 41 40 39 39 38 38 38 37 34 32 31 30 30 30 31 31 31 29 28 27 26 25 26 26 26 25 24 24 25 24 24 24 25 25 24 23 23 24 23 21 20 20 22 24 27 28 29 30 29 28 27 27 27 28 28 29 29 29 30 31 31 31
33 32 32 32 31 30 31 33 36 38 39 37 35 36 38 40 41 42 44 44 44 44 44 43 42 41 40 40 40 40 39 37 34 33 31 30 31 32 32 32 31 30 28 26 25 26 27 26 25 25 24 25 24 25 27 27 25 24 24 24 24 23 21 21 22 24 26 28 29 29 28 28 27 26 25 25 26 27 28 29 29 29 30 30 30
36 36 36 35 34 33 33 33 35 37 38 38 37 36 38 40 42 43 45 46 46 45 46 46 45 43 43 42 42 42 42 40 37 34 32 32 33 34 33 33 32 31 29 26 25 25 26 26 26 25 25 25 25 26 27 26 25 24 24 23 22 22 21 22 24 25 27 30 30 27 26 26 27 26 24 23 25 26 27 28 29 28 28 29 29
39 39 39 38 36 35 35 35 36 36 37 37 38 37 38 40 42 45 47 48 48 47 48 48 47 46 45 45 44 44 44 43 39 35 33 34 35 35 35 33 33 32 30 28 26 26 26 26 25 25 25 25 25 26 27 26 25 24 23 22 21 21 22 23 25 26 27 30 29 26 24 25 25 25 23 22 23 25 25 26 28 28 27 27 28
40 40 41 41 39 37 37 37 37 37 36 36 37 38 38 40 43 45 47 48 49 49 49 49 49 48 48 48 47 46 46 46 42 37 35 35 36 36 36 34 33 32 31 29 27 25 26 26 25 25 25 24 24 26 26 26 24 22 21 22 22 23 23 24 25 26 25 28 27 25 24 25 24 24 23 20 20 23 24 25 26 27 28 28 27
40 41 42 42 41 39 38 38 38 38 37 37 37 38 39 40 43 45 47 49 50 51 52 51 50 50 50 50 49 48 48 48 45 40 37 37 37 37 37 35 33 33 33 31 27 25 25 25 24 25 25 24 24 25 25 25 23 21 21 22 22 23 23 24 25 25 24 26 25 22 22 23 22 22 23 21 19 20 22 24 26 27 28 28 28
39 40 41 42 41 40 39 38 39 40 40 40 39 40 41 43 44 46 48 50 51 53 53 53 52 52 52 52 51 50 50 51 47 42 40 39 39 38 37 36 34 33 32 30 27 25 25 24 24 25 25 24 24 24 24 24 22 20 21 22 22 23 23 23 24 23 23 25 24 20 20 21 21 21 22 22 21 19 20 22 25 27 28 28 28
Wind_Direction
158 146 137 126 112 98 94 81 69 59 58 60 58 56 47 44 45 39 34 33 38 35 31 26 10 2 353 351 28 40 105 134 146 157 194 229 239 231 217 215 213 204 200 196 198 190 180 174 165 164 141 135 91 115 165 83 83 52 13 7 14 66 129 153 170 185 203 215 221 231 248 283 295 309 317 312 308 302 300 304 298 256 261 273 268
165 155 151 142 122 109 100 79 70 63 62 63 57 50 43 39 35 31 27 29 35 30 30 27 2 349 343 343 360 22 69 108 111 109 156 234 236 239 224 215 213 213 211 210 212 207 196 189 195 204 193 175 172 112 153 183 169 105 345 326 349 10 253 230 207 212 230 241 251 265 269 267 271 284 294 291 292 300 305 306 303 287 269 267 272
180 172 168 152 139 134 114 75 64 59 56 53 45 33 34 35 21 18 18 18 27 29 27 20 1 346 343 351 347 347 46 86 90 83 66 263 223 217 228 220 217 221 220 219 221 220 211 205 216 218 217 216 220 250 319 272 242 233 242 262 299 312 315 274 252 233 244 253 259 268 273 263 262 270 274 278 284 291 298 303 303 298 291 288 285
196 190 184 167 161 157 135 108 78 69 54 42 32 17 18 16 7 18 24 11 9 22 25 12 0 350 343 353 337 325 6 86 98 95 92 47 195 183 213 217 224 231 228 227 227 229 227 223 226 221 216 229 223 215 232 248 240 245 254 259 272 276 263 263 267 244 241 248 250 252 255 254 256 263 268 273 279 284 289 292 291 290 291 294 294
209 204 197 185 183 175 155 145 125 91 61 42 19 4 7 2 2 18 23 16 7 13 15 358 349 349 339 339 317 310 337 82 109 118 122 104 85 127 215 197 223 242 240 237 232 231 235 228 225 224 220 218 221 228 234 240 238 250 263 271 277 281 270 267 279 272 258 255 250 249 252 256 256 255 260 266 272 276 280 283 284 285 285 286 287
216 209 200 198 195 185 169 152 142 91 49 16 358 356 358 351 353 5 2 1 8 13 10 344 331 336 329 322 301 301 332 65 113 119 118 119 109 97 226 180 218 246 249 253 251 241 235 227 224 226 229 230 227 236 244 250 254 259 263 264 273 285 281 276 278 274 274 273 267 266 267 270 269 264 264 265 269 274 276 279 282 282 279 279 281
213 205 194 195 198 192 172 161 151 65 24 354 351 348 349 350 349 355 351 341 345 1 12 342 330 320 319 313 292 296 326 59 104 99 97 110 123 146 223 191 213 232 223 237 263 259 248 241 239 238 240 246 243 243 250 254 264 270 267 258 263 276 278 275 273 271 271 271 269 267 266 268 270 271 272 272 274 280 282 282 282 280 279 280 280
207 201 191 190 194 190 179 179 163 39 1 348 349 344 344 349 352 354 341 332 330 321 315 338 341 313 300 314 292 294 314 95 102 96 100 113 128 171 228 223 216 216 204 201 235 263 269 257 248 245 246 252 250 250 258 260 264 272 267 259 260 262 266 268 267 267 266 264 263 265 270 273 268 264 267 269 272 276 282 283 280 278 279 278 277
205 202 194 191 192 186 185 194 194 349 343 342 340 340 341 339 345 355 330 326 330 306 299 334 332 304 298 297 280 281 290 122 125 120 116 119 139 171 202 246 229 213 216 207 199 245 279 274 256 249 251 254 257 258 258 256 260 266 264 266 268 261 262 266 266 265 263 263 262 265 272 273 267 264 262 260 259 263 272 276 273 270 271 271 272
208 203 196 192 192 189 188 193 199 296 324 328 328 334 334 325 330 350 326 311 316 307 313 304 252 269 301 267 252 253 218 149 141 129 119 130 152 165 204 244 239 228 228 227 205 209 250 271 269 264 263 261 262 266 262 259 261 264 263 266 267 267 269 269 268 265 264 269 275 276 278 276 271 272 272 265 259 258 263 268 267 263 262 265 268
210 204 199 194 193 194 193 195 225 286 307 314 322 327 320 311 308 310 293 289 297 301 316 330 247 177 229 255 251 239 184 160 144 132 129 140 152 153 224 262 260 255 244 239 235 221 226 240 245 250 268 270 265 264 263 262 260 263 267 265 264 268 272 271 271 270 273 282 286 281 278 277 275 274 276 275 272 266 263 265 265 264 263 264 268
213 209 205 200 201 201 200 209 241 275 300 308 314 310 294 289 277 260 261 279 312 330 351 26 43 141 190 231 255 221 140 147 140 133 129 134 147 147 192 291 291 276 264 249 240 237 236 235 231 224 243 263 266 263 263 264 260 260 265 267 269 271 270 268 270 275 283 289 291 289 282 278 277 275 277 279 278 275 270 268 267 268 268 267 270
216 214 210 205 207 207 209 225 245 272 295 301 298 280 262 252 233 234 258 302 344 346 12 56 70 82 110 126 279 69 101 121 129 133 133 134 145 153 174 266 295 290 283 269 249 238 234 231 237 236 239 254 263 265 267 269 267 265 266 268 271 271 268 267 267 273 282 288 291 293 291 289 288 286 284 282 281 280 277 275 273 273 272 269 269
218 215 211 208 210 210 215 230 246 273 294 293 261 239 231 230 218 213 234 13 44 34 40 58 77 88 96 103 96 81 92 106 117 131 141 145 149 155 168 195 277 292 289 285 275 253 235 225 235 241 248 256 259 264 265 264 265 268 272 272 271 272 273 274 273 274 279 285 287 285 289 293 294 295 293 290 289 288 284 283 283 281 277 273 270
219 214 211 209 211 213 218 231 248 277 291 246 215 210 205 212 209 185 170 166 52 48 47 48 73 109 116 104 103 103 102 105 112 125 139 153 154 147 152 185 260 290 294 296 299 283 250 237 244 246 251 257 258 265 266 265 266 269 273 275 275 275 276 276 275 274 276 281 282 280 281 285 289 292 292 292 293 292 290 288 288 286 283 280 276
219 214 211 212 212 215 221 231 248 268 245 203 202 197 191 199 192 161 146 123 23 19 25 25 61 125 128 113 113 116 112 112 116 118 124 138 146 141 153 179 240 290 304 323 335 326 271 242 257 255 256 260 263 267 269 271 272 270 271 273 276 277 277 277 275 275 277 279 280 278 278 280 282 284 284 285 287 288 289 288 287 286 283 282 280
219 216 213 215 216 218 223 231 244 245 212 205 201 191 187 192 181 161 146 68 27 17 18 7 6 118 139 130 126 125 124 126 123 115 117 127 134 135 151 175 226 292 310 326 333 346 358 12 253 260 265 270 273 277 280 281 277 274 275 275 277 279 281 281 280 279 280 281 281 281 282 284 285 285 284 283 283 284 285 285 285 284 282 280 279
220 218 216 217 217 219 222 231 239 228 213 207 200 194 190 187 178 167 146 89 67 51 44 34 30 39 103 136 136 131 134 136 128 116 120 129 134 136 149 181 223 279 299 306 310 323 333 322 218 262 271 280 283 283 287 292 290 288 290 290 291 292 290 290 289 287 286 285 286 286 286 287 288 289 289 288 287 286 285 284 284 283 282 281 279
220 219 218 217 217 218 220 228 233 223 215 206 198 200 196 187 181 170 145 110 92 79 65 62 67 67 73 95 128 129 129 129 123 119 127 132 138 147 160 183 216 263 279 293 302 310 321 320 324 334 257 284 298 292 301 316 326 327 324 323 319 314 310 305 301 298 296 295 295 295 294 294 293 294 295 295 296 294 292 291 289 288 286 285 283
221 220 219 218 217 218 220 224 230 222 213 204 199 199 193 187 185 172 150 123 99 84 73 69 77 79 84 95 110 123 123 115 116 124 135 136 144 155 166 186 204 236 268 290 295 295 301 296 312 350 11 352 342 349 354 354 351 347 348 349 340 327 318 311 306 304 302 301 303 305 306 306 304 301 299 299 300 300 300 299 296 294 292 289 288
223 221 219 219 216 217 220 222 226 220 210 203 199 194 189 189 189 178 163 137 104 87 81 76 79 81 83 90 93 100 106 105 114 122 120 131 139 141 217 234 229 236 258 275 279 280 285 286 297 328 348 347 339 343 346 342 340 337 336 342 344 336 326 316 310 308 308 309 311 313 314 315 314 311 307 305 304 304 304 303 301 299 296 294 291
227 224 221 220 216 216 219 219 222 218 208 201 196 192 191 193 190 185 176 152 119 99 95 89 85 84 81 81 78 77 82 84 91 94 81 91 108 282 267 261 267 265 261 267 271 274 280 286 293 306 325 331 320 321 323 322 320 315 319 332 337 335 332 329 326 324 324 324 323 323 322 321 321 319 317 315 313 312 311 310 307 304 300 297 294
233 230 225 220 216 214 216 217 219 215 204 198 195 193 195 194 190 189 184 166 144 121 106 94 83 79 77 76 72 67 65 59 47 37 30 28 356 296 266 267 273 262 262 270 273 275 280 286 293 302 313 313 302 302 302 304 302 298 312 328 331 332 330 329 330 332 333 331 328 328 327 326 326 324 321 318 316 315 314 314 312 309 305 301 298
245 238 230 221 214 212 213 215 216 210 201 198 196 195 196 194 190 190 188 180 168 144 110 87 71 66 63 59 55 51 51 48 40 26 10 352 329 308 274 274 274 261 263 270 273 279 284 287 297 306 311 309 305 302 300 309 310 306 316 327 328 329 329 328 328 328 328 326 325 328 330 331 331 328 325 320 317 314 313 313 313 311 309 306 303
253 244 232 223 215 211 213 215 213 206 201 201 198 196 196 194 191 191 191 189 185 167 127 85 60 52 45 38 28 23 23 25 30 29 18 3 340 324 300 286 280 272 272 267 265 276 286 295 304 307 305 306 310 313 314 320 319 311 314 320 321 323 325 325 323 321 319 318 319 323 328 330 331 329 328 325 322 319 316 316 317 317 315 312 308
250 240 229 224 217 212 214 216 212 206 203 203 201 198 196 194 193 192 193 196 196 188 175 140 25 21 17 16 9 1 359 357 359 2 2 0 344 327 320 310 298 289 285 273 266 277 289 300 307 305 303 307 314 318 317 318 315 308 309 312 313 314 316 316 315 313 312 312 314 317 321 325 326 325 324 325 326 325 323 323 323 323 322 318 313
245 239 229 222 218 215 216 218 214 208 205 205 203 201 198 197 196 195 196 201 202 204 211 238 290 325 335 342 344 343 341 339 338 337 334 334 332 326 321 319 313 305 298 287 283 289 296 303 307 307 308 311 315 318 317 314 310 306 306 308 310 310 310 310 309 307 307 308 309 310 314 317 317 316 316 318 319 321 323 325 325 325 324 321 317
243 241 236 227 220 218 218 219 217 212 208 207 205 203 202 202 202 200 202 206 209 215 227 243 262 285 299 309 319 323 324 324 324 323 320 317 315 313 311 311 312 307 301 295 294 295 296 301 304 305 307 307 308 312 312 311 310 308 307 308 309 307 306 306 304 303 305 305 304 304 306 307 308 308 308 308 309 311 314 318 321 322 322 321 318
243 243 242 236 227 222 220 219 219 215 211 209 208 206 206 207 207 207 207 211 215 222 233 244 256 269 281 290 298 304 310 313 315 315 315 313 309 306 304 302 301 297 293 291 292 292 291 294 296 297 297 298 300 302 303 304 307 310 310 309 308 307 307 306 304 303 302 301 301 300 300 301 302 303 302 302 303 305 308 311 315 317 317 317 316
244 245 246 244 236 228 223 220 219 216 213 211 210 209 209 211 211 211 212 214 218 225 234 244 253 262 272 280 286 293 299 304 308 311 313 313 309 305 302 299 298 296 293 290 290 290 289 289 290 290 292 295 299 300 299 300 302 306 309 311 312 314 313 313 312 310 307 304 302 300 299 299 299 300 300 300 301 304 306 309 312 312 312 312 312
243 245 248 249 246 237 229 225 221 218 215 213 212 211 212 213 214 215 216 217 219 225 233 241 249 256 265 272 278 284 289 294 302 307 309 309 308 305 302 300 298 297 296 294 291 291 289 288 288 289 291 294 298 299 300 300 300 301 305 308 313 316 316 317 319 318 316 313 309 304 301 299 298 298 299 299 301 304 306 309 310 309 309 309 309
242 245 246 249 250 245 236 231 225 220 217 215 214 213 213 215 217 218 220 220 220 225 232 239 245 251 258 266 272 276 281 288 295 301 304 304 303 303 303 302 301 300 299 297 294 291 289 289 289 289 291 293 295 297 299 301 299 299 301 305 310 315 316 317 319 320 321 321 316 310 305 301 300 299 299 300 301 304 307 308 308 308 309 309 309
243 244 246 248 251 249 243 237 230 224 219 218 217 215 215 216 218 221 223 223 223 226 231 237 243 248 254 260 266 271 275 281 288 294 297 298 299 301 303 303 302 300 298 297 296 293 292 291 291 293 295 295 294 296 298 299 299 299 300 303 307 311 314 316 317 317 319 320 319 315 309 304 302 301 301 302 304 307 308 308 307 307 308 309 309
243 244 245 247 249 250 246 241 235 228 222 220 219 217 216 217 219 222 225 226 226 228 232 237 242 247 252 257 262 267 273 277 282 287 291 294 296 298 300 301 300 298 295 294 294 295 295 295 294 296 298 297 294 295 295 295 297 299 300 302 304 306 309 311 312 313 314 316 317 316 314 309 305 303 303 304 307 308 308 308 308 309 309 309 309
244 244 244 245 247 248 248 244 239 231 225 222 222 220 219 218 220 223 227 228 229 231 234 236 240 245 250 255 260 265 271 275 278 282 288 293 295 296 298 298 298 297 293 289 289 290 293 295 296 295 296 295 290 288 289 290 293 296 298 299 301 302 304 304 306 309 311 312 313 314 314 312 308 306 305 306 307 307 307 307 308 310 311 310 308
244 244 244 244 246 246 246 245 241 234 227 224 224 223 221 221 222 224 228 230 231 233 236 237 239 243 248 253 259 263 269 273 277 281 286 292 294 294 295 296 294 293 292 288 284 283 285 289 292 291 290 290 285 282 283 285 287 290 293 296 297 298 298 299 303 306 308 309 310 311 312 311 308 306 306 305 305 304 304 305 307 309 309 308 307
244 244 243 243 244 244 244 244 243 238 230 225 225 225 224 223 224 226 229 231 233 235 238 239 240 242 247 252 257 262 266 271 277 282 286 290 292 293 293 294 293 292 293 292 287 283 281 282 284 286 286 287 286 283 282 281 284 287 289 291 292 293 294 296 300 303 305 307 307 308 309 307 304 303 304 303 303 303 303 305 306 307 307 306 305
243 243 243 243 243 243 244 244 244 241 233 227 226 226 225 225 226 228 230 232 234 236 239 241 243 244 248 252 257 261 266 270 276 281 285 288 291 293 294 295 295 294 295 295 292 288 283 280 280 282 284 286 288 288 285 282 283 285 287 290 292 292 293 294 297 300 303 305 305 306 307 305 304 304 304 304 303 303 304 304 305 305 305 304 304
243 244 243 243 243 244 243 243 243 242 237 230 227 227 226 227 228 229 231 233 234 236 239 242 245 247 249 252 256 261 266 270 274 279 284 287 289 292 294 296 296 296 297 296 296 293 289 286 283 282 283 287 290 291 289 286 284 285 289 294 295 295 294 294 296 300 302 304 305 306 306 305 307 309 308 306 305 305 304 304 304 304 303 303 304
244 245 244 242 242 243 242 242 242 242 239 233 229 228 227 228 230 231 232 234 235 236 239 242 245 247 249 252 256 260 265 269 273 277 282 286 287 288 291 294 295 296 297 298 299 297 294 292 289 285 285 288 291 293 293 292 290 289 293 297 297 296 295 295 298 300 302 305 307 307 305 307 310 311 309 308 307 307 307 306 306 303 301 303 304
247 248 247 243 241 240 240 241 241 242 240 235 231 229 228 230 231 232 233 235 236 237 239 241 244 247 250 252 255 259 264 267 270 274 279 284 286 286 287 290 292 295 298 300 302 299 295 294 293 290 287 289 292 294 296 296 295 295 297 299 298 296 295 296 298 299 302 305 305 304 305 309 313 311 310 310 309 309 308 307 305 302 302 304 304
253 252 251 246 242 240 239 239 240 241 240 237 233 231 230 231 233 234 235 236 237 237 239 241 244 247 250 252 255 259 262 265 268 272 278 283 285 284 284 286 289 294 299 303 304 301 296 294 294 292 290 291 293 292 293 296 297 298 299 298 298 297 296 296 296 297 301 303 304 305 307 311 313 311 309 309 309 308 307 306 305 304 304 305 305
255 254 254 251 246 242 241 240 241 242 242 240 236 232 231 232 234 235 237 237 237 238 239 240 243 246 249 252 255 258 261 263 267 272 278 282 284 282 282 284 286 291 298 303 304 301 296 294 293 292 291 293 292 290 293 298 298 298 297 297 297 296 294 294 294 297 302 306 308 308 309 311 311 309 308 308 308 307 305 305 306 305 304 305 306
253 254 255 254 252 248 245 243 243 244 245 243 239 235 233 233 235 236 238 239 239 238 239 240 243 245 248 251 254 257 260 262 267 272 276 280 282 281 281 282 284 290 297 302 303 300 297 295 294 294 295 294 290 289 295 299 297 295 294 294 293 291 290 292 293 297 304 309 309 307 308 310 309 308 309 309 308 307 306 306 307 306 305 307 307
251 253 254 254 254 252 250 247 245 246 247 246 242 237 234 234 235 237 239 241 241 239 240 241 243 245 248 250 253 256 259 262 265 269 274 278 279 279 280 281 283 288 295 300 301 299 296 294 293 295 296 293 288 289 295 297 294 291 290 289 289 290 290 293 297 302 306 308 307 306 308 310 309 310 312 311 309 309 309 309 310 308 307 307 306
250 252 253 253 253 253 253 251 249 247 248 248 246 241 236 235 235 237 240 242 242 241 240 241 243 245 247 250 252 255 258 260 262 267 272 275 275 276 278 279 281 285 291 296 298 298 295 291 289 290 291 289 286 287 293 295 291 288 288 288 290 292 295 299 303 307 307 303 302 305 309 310 310 312 313 313 312 312 311 310 309 307 305 304 304
251 252 253 253 253 252 252 253 252 250 250 250 249 244 239 236 235 237 239 242 243 243 242 242 244 245 248 250 252 254 257 258 260 264 270 273 273 273 276 277 279 282 286 291 295 295 294 289 285 284 284 284 283 285 290 292 290 289 290 291 293 296 300 303 305 306 305 302 302 307 312 312 312 314 315 315 313 311 310 308 307 306 305 306 306
250 252 253 254 253 252 251 252 253 253 252 251 250 248 243 238 236 237 239 241 244 244 244 244 245 246 248 250 251 254 256 258 260 262 267 271 272 272 274 276 278 280 282 287 293 294 292 287 282 279 279 280 281 283 287 290 289 291 292 293 295 298 301 303 303 304 305 303 306 313 316 314 313 313 314 314 311 309 308 308 308 309 309 310 311
250 253 254 255 256 255 253 253 254 256 256 254 252 251 247 242 239 238 240 242 244 245 246 246 246 247 248 250 251 253 256 258 260 261 264 268 270 272 274 276 278 278 280 286 292 292 290 286 279 275 276 278 281 284 288 289 289 290 291 293 296 298 301 303 303 304 306 304 308 317 317 314 313 312 311 312 311 310 310 310 311 311 312 314 315
250 252 253 254 256 258 258 256 255 257 258 257 255 252 249 246 243 241 242 243 245 246 247 247 248 248 249 250 251 253 255 258 260 261 263 266 269 272 274 275 276 276 279 285 290 289 287 283 276 272 273 277 282 286 287 286 286 287 288 291 295 298 302 303 302 305 306 305 309 318 315 310 311 311 312 314 315 314 314 313 313 314 315 316 317
247 248 249 252 255 257 257 256 255 254 254 254 254 251 249 247 245 244 243 244 245 246 247 248 249 250 250 251 252 253 255 257 259 261 263 265 268 271 273 274 274 275 278 283 287 288 285 280 273 270 273 277 282 285 286 283 283 284 286 290 294 297 300 300 301 305 306 305 311 318 311 306 309 312 315 317 318 320 318 314 314 314 315 317 318
Height
3234 3234 3235 3235 3235 3235 3235 3235 3235 3235 3235 3234 3234 3233 3233 3233 3233 3233 3232 3231 3231 3231 3231 3230 3230 3230 3230 3230 3229 3228 3228 3228 3228 3228 3228 3228 3228 3226 3226 3227 3228 3228 3228 3228 3228 3229 3229 3229 3230 3229 3230 3230 3230 3230 3230 3231 3231 3231 3232 3231 3231 3231 3232 3232 3232 3232 3232 3232 3232 3232 3232 3233 3233 3233 3233 3233 3233 3233 3233 3232 3232 3232 3232 3232 3232
3234 3235 3235 3235 3235 3235 3235 3235 3235 3235 3235 3235 3234 3234 3233 3233 3233 3232 3231 3231 3231 3231 3230 3231 3230 3230 3230 3230 3229 3228 3228 3227 3228 3228 3228 3228 3228 3227 3227 3227 3228 3228 3228 3228 3228 3228 3229 3230 3230 3230 3230 3230 3230 3230 3231 3231 3231 3231 3231 3232 3232 3232 3232 3232 3232 3232 3232 3232 3232 3232 3232 3233 3233 3233 3233 3233 3233 3233 3233 3233 3233 3233 3232 3232 3232
3234 3235 3235 3235 3235 3235 3235 3235 3235 3235 3235 3234 3234 3234 3233 3234 3233 3232 3232 3231 3231 3231 3230 3231 3231 3230 3230 3229 3229 3227 3227 3227 3227 3228 3228 3228 3227 3227 3227 3227 3227 3228 3228 3228 3228 3229 3229 3230 3230 3230 3230 3230 3230 3231 3231 3231 3231 3231 3231 3232 3232 3232 3232 3232 3232 3232 3232 3232 3232 3232 3232 3232 3233 3233 3233 3233 3233 3233 3233 3233 3233 3233 3232 3232 3232
3234 3235 3235 3235 3235 3235 3235 3235 3235 3235 3235 3235 3234 3234 3233 3233 3233 3233 3232 3231 3231 3231 3231 3231 3231 3231 3230 3230 3229 3227 3227 3226 3227 3228 3228 3228 3228 3228 3228 3228 3228 3228 3228 3228 3229 3229 3229 3230 3230 3230 3230 3231 3230 3230 3231 3232 3231 3231 3231 3231 3231 3232 3232 3232 3232 3231 3231 3231 3231 3231 3232 3232 3232 3232 3233 3233 3233 3233 3233 3233 3233 3233 3233 3232 3232
3234 3234 3235 3235 3235 3235 3235 3235 3235 3235 3235 3235 3235 3234 3234 3233 3233 3232 3232 3231 3231 3231 3231 3231 3231 3231 3230 3230 3229 3227 3226 3226 3227 3227 3228 3227 3228 3228 3229 3229 3228 3228 3228 3228 3228 3229 3229 3230 3230 3230 3230 3230 3230 3230 3231 3231 3231 3231 3231 3231 3231 3231 3231 3231 3231 3231 3231 3231 3230 3231 3231 3232 3232 3232 3232 3232 3233 3233 3233 3232 3232 3233 3232 3232 3232
3233 3234 3234 3235 3235 3235 3235 3235 3235 3235 3235 3235 3235 3235 3234 3234 3233 3232 3232 3232 3231 3231 3231 3232 3231 3231 3230 3230 3229 3227 3226 3226 3226 3227 3227 3227 3228 3228 3229 3229 3228 3227 3228 3228 3228 3229 3229 3229 3229 3229 3229 3230 3230 3230 3231 3231 3230 3231 3231 3231 3231 3231 3231 3231 3231 3231 3231 3231 3231 3231 3231 3231 3232 3232 3232 3232 3232 3232 3232 3232 3232 3232 3232 3232 3232
3233 3233 3234 3234 3234 3234 3234 3235 3235 3235 3235 3235 3234 3234 3234 3233 3233 3232 3232 3231 3231 3231 3231 3231 3231 3231 3231 3230 3229 3228 3226 3226 3226 3226 3227 3227 3228 3228 3228 3229 3228 3227 3228 3229 3229 3229 3229 3229 3229 3229 3229 3229 3230 3230 3230 3230 3230 3231 3230 3230 3230 3230 3230 3230 3230 3230 3230 3230 3231 3231 3231 3231 3231 3232 3232 3232 3231 3231 3231 3231 3231 3231 3231 3231 3231
3233 3233 3234 3234 3234 3234 3234 3234 3234 3234 3234 3234 3234 3234 3233 3233 3232 3232 3232 3232 3231 3231 3230 3231 3231 3231 3231 3229 3228 3227 3226 3225 3225 3226 3227 3227 3227 3228 3228 3228 3227 3227 3228 3228 3229 3229 3228 3229 3228 3228 3229 3229 3230 3230 3230 3230 3230 3230 3230 3230 3230 3230 3230 3229 3229 3229 3229 3229 3230 3231 3231 3231 3231 3231 3231 3231 3231 3230 3230 3230 3230 3230 3230 3230 3230
3232 3233 3233 3234 3234 3234 3234 3234 3234 3234 3234 3234 3234 3233 3233 3233 3232 3232 3232 3231 3231 3230 3230 3230 3230 3230 3230 3229 3228 3226 3225 3225 3225 3226 3226 3227 3227 3228 3228 3228 3227 3227 3227 3228 3228 3228 3227 3228 3228 3228 3229 3229 3229 3229 3229 3229 3229 3229 3229 3229 3229 3229 3229 3229 3228 3228 3228 3228 3230 3230 3231 3231 3230 3230 3230 3230 3230 3229 3229 3229 3229 3229 3229 3229 3229
3232 3232 3233 3233 3233 3234 3234 3234 3234 3234 3234 3234 3234 3234 3233 3233 3232 3232 3232 3231 3231 3230 3230 3230 3230 3230 3229 3228 3227 3226 3224 3224 3225 3226 3226 3227 3227 3228 3228 3228 3227 3227 3227 3227 3228 3228 3227 3227 3228 3228 3228 3228 3228 3228 3228 3228 3228 3228 3228 3228 3228 3228 3228 3227 3227 3227 3226 3227 3230 3230 3230 3230 3229 3229 3229 3229 3229 3228 3228 3228 3228 3228 3228 3228 3228
3231 3232 3232 3232 3233 3233 3233 3234 3234 3234 3233 3234 3234 3233 3233 3232 3232 3232 3232 3231 3230 3230 3230 3229 3229 3229 3228 3227 3226 3225 3224 3224 3225 3225 3226 3227 3227 3228 3228 3227 3227 3227 3227 3227 3227 3227 3227 3227 3228 3228 3227 3227 3227 3227 3227 3227 3227 3227 3227 3227 3227 3227 3227 3227 3226 3226 3226 3227 3229 3229 3229 3229 3228 3228 3228 3228 3228 3228 3227 3227 3227 3226 3226 3227 3227
3230 3231 3231 3232 3232 3233 3233 3233 3233 3233 3233 3233 3233 3233 3233 3232 3232 3231 3231 3231 3230 3229 3229 3229 3228 3228 3227 3226 3225 3225 3224 3224 3225 3225 3226 3227 3227 3228 3227 3227 3227 3227 3226 3226 3226 3226 3226 3226 3227 3227 3228 3227 3226 3226 3226 3226 3227 3226 3226 3226 3226 3226 3226 3226 3225 3225 3226 3227 3228 3227 3227 3227 3227 3227 3227 3226 3227 3226 3226 3226 3226 3225 3225 3225 3225
3230 3230 3231 3231 3231 3232 3232 3232 3232 3233 3233 3233 3233 3232 3232 3232 3232 3231 3231 3231 3230 3230 3229 3229 3228 3227 3226 3225 3225 3224 3224 3224 3225 3225 3225 3226 3227 3228 3228 3227 3227 3226 3225 3225 3225 3225 3225 3226 3226 3226 3227 3227 3226 3226 3226 3225 3226 3225 3225 3225 3225 3225 3225 3225 3225 3225 3225 3226 3227 3226 3225 3226 3226 3226 3226 3226 3225 3225 3225 3225 3225 3224 3224 3224 3224
3229 3229 3230 3230 3231 3231 3231 3231 3232 3232 3232 3232 3232 3232 3232 3232 3232 3231 3231 3231 3230 3230 3229 3229 3228 3227 3226 3225 3225 3224 3224 3225 3225 3225 3225 3226 3226 3227 3228 3227 3226 3226 3225 3224 3224 3224 3224 3225 3225 3225 3225 3226 3226 3226 3225 3225 3225 3225 3225 3224 3224 3224 3224 3224 3224 3224 3224 3224 3225 3226 3225 3224 3225 3225 3225 3224 3224 3224 3224 3224 3224 3223 3223 3222 3222
3228 3228 3229 3229 3230 3230 3230 3231 3231 3231 3231 3232 3232 3232 3231 3231 3231 3231 3231 3231 3230 3229 3229 3229 3228 3228 3227 3226 3225 3225 3225 3225 3225 3225 3225 3226 3226 3227 3227 3227 3227 3226 3225 3224 3223 3223 3223 3224 3224 3224 3224 3225 3225 3225 3225 3224 3224 3224 3224 3224 3224 3224 3224 3224 3224 3223 3223 3223 3223 3224 3224 3223 3223 3223 3223 3223 3223 3223 3223 3222 3222 3222 3221 3221 3221
3227 3227 3228 3228 3229 3229 3230 3230 3230 3230 3231 3231 3231 3231 3231 3231 3231 3231 3231 3230 3230 3229 3229 3228 3228 3228 3227 3226 3226 3225 3225 3226 3225 3225 3225 3226 3226 3227 3227 3227 3227 3226 3226 3225 3224 3223 3223 3223 3223 3224 3224 3224 3224 3224 3224 3223 3223 3224 3223 3223 3223 3222 3222 3222 3222 3222 3221 3221 3221 3222 3222 3222 3221 3221 3221 3221 3221 3221 3220 3220 3220 3220 3220 3219 3219
3226 3226 3227 3227 3228 3228 3229 3229 3230 3230 3230 3230 3231 3231 3230 3231 3231 3231 3231 3230 3230 3229 3228 3228 3228 3227 3227 3226 3226 3226 3226 3225 3225 3225 3225 3226 3226 3226 3227 3227 3227 3227 3226 3225 3224 3223 3223 3223 3223 3223 3223 3223 3223 3223 3223 3223 3223 3222 3222 3222 3222 3221 3221 3221 3221 3221 3220 3220 3220 3220 3220 3220 3220 3219 3219 3219 3219 3218 3218 3218 3218 3217 3217 3217 3217
3225 3225 3226 3227 3227 3228 3228 3229 3229 3230 3230 3230 3230 3230 3230 3230 3231 3231 3230 3230 3230 3229 3229 3228 3228 3227 3227 3226 3226 3225 3225 3225 3225 3226 3225 3226 3226 3226 3227 3227 3227 3227 3226 3225 3224 3224 3223 3223 3223 3223 3223 3223 3223 3223 3222 3222 3222 3222 3221 3221 3221 3221 3221 3220 3220 3220 3219 3219 3219 3218 3218 3218 3218 3218 3217 3217 3216 3216 3216 3215 3215 3215 3215 3215 3214
3223 3224 3225 3225 3226 3226 3227 3228 3228 3229 3229 3229 3230 3230 3230 3230 3230 3230 3230 3230 3230 3229 3229 3228 3228 3227 3227 3226 3226 3226 3226 3225 3226 3226 3226 3226 3226 3226 3226 3226 3226 3226 3225 3225 3224 3223 3223 3223 3223 3223 3223 3223 3222 3222 3222 3221 3221 3221 3221 3220 3220 3220 3219 3219 3219 3219 3218 3218 3217 3217 3217 3217 3217 3216 3216 3215 3214 3214 3214 3214 3213 3213 3212 3212 3212
3222 3223 3223 3224 3225 3225 3226 3227 3227 3228 3228 3229 3229 3229 3230 3230 3230 3230 3230 3230 3230 3229 3229 3229 3228 3228 3227 3227 3226 3226 3226 3226 3226 3226 3226 3226 3226 3226 3226 3226 3226 3226 3225 3225 3224 3223 3223 3223 3223 3222 3222 3222 3222 3222 3221 3221 3220 3220 3220 3220 3219 3219 3218 3218 3217 3217 3217 3217 3216 3216 3216 3215 3215 3215 3215 3214 3213 3212 3212 3211 3211 3211 3210 3210 3210
3220 3221 3222 3223 3223 3224 3225 3226 3226 3227 3228 3228 3228 3229 3229 3230 3230 3230 3230 3230 3230 3230 3229 3229 3228 3228 3228 3227 3227 3227 3226 3226 3226 3226 3225 3226 3226 3226 3226 3226 3226 3226 3225 3225 3224 3223 3223 3222 3222 3222 3222 3222 3221 3221 3221 3220 3220 3220 3219 3219 3218 3218 3217 3217 3216 3216 3216 3215 3215 3214 3214 3214 3213 3213 3213 3212 3211 3211 3210 3209 3209 3209 3208 3208 3207
3219 3219 3220 3221 3222 3223 3223 3224 3225 3226 3226 3227 3228 3228 3229 3229 3230 3230 3230 3230 3230 3230 3230 3229 3229 3228 3228 3228 3228 3227 3227 3226 3226 3226 3225 3225 3226 3226 3226 3226 3226 3225 3225 3224 3224 3223 3222 3222 3221 3221 3221 3221 3221 3221 3220 3220 3220 3219 3219 3218 3218 3217 3216 3216 3215 3215 3214 3214 3213 3213 3212 3212 3211 3211 3210 3210 3210 3209 3208 3207 3207 3206 3206 3205 3205
3217 3218 3219 3219 3220 3221 3222 3223 3224 3224 3225 3226 3227 3228 3228 3229 3229 3229 3230 3230 3230 3230 3230 3229 3229 3229 3228 3228 3228 3228 3227 3227 3226 3226 3225 3225 3225 3225 3225 3225 3225 3225 3224 3224 3223 3223 3222 3221 3220 3220 3220 3220 3220 3220 3220 3219 3218 3218 3217 3217 3216 3215 3215 3214 3214 3214 3213 3213 3212 3211 3211 3210 3210 3209 3209 3208 3208 3207 3206 3205 3204 3204 3203 3202 3202
3216 3217 3217 3218 3219 3220 3221 3222 3222 3223 3224 3225 3226 3227 3227 3228 3228 3229 3229 3230 3230 3229 3229 3229 3229 3229 3229 3228 3228 3228 3227 3227 3226 3226 3225 3225 3225 3225 3225 3224 3224 3224 3223 3223 3223 3222 3221 3220 3220 3219 3219 3218 3218 3218 3218 3218 3217 3216 3216 3215 3214 3214 3213 3213 3213 3212 3212 3211 3211 3210 3210 3209 3208 3208 3207 3207 3206 3206 3205 3204 3203 3202 3201 3200 3200
3214 3215 3216 3217 3218 3218 3219 3220 3221 3222 3223 3224 3225 3225 3226 3227 3227 3228 3229 3229 3229 3229 3229 3229 3229 3229 3228 3228 3228 3228 3227 3227 3226 3226 3226 3225 3225 3224 3224 3224 3224 3223 3223 3222 3222 3222 3221 3220 3219 3219 3218 3218 3217 3217 3217 3217 3216 3215 3214 3214 3213 3212 3212 3212 3211 3211 3210 3210 3209 3209 3208 3208 3207 3207 3206 3205 3205 3204 3203 3202 3201 3200 3200 3199 3198
3212 3214 3215 3215 3216 3217 3218 3219 3220 3220 3221 3222 3223 3224 3225 3226 3226 3227 3228 3228 3228 3228 3228 3229 3228 3228 3228 3228 3228 3227 3227 3227 3226 3226 3226 3225 3225 3224 3224 3223 3223 3222 3222 3221 3221 3221 3221 3220 3219 3219 3218 3217 3217 3217 3216 3216 3215 3214 3213 3213 3212 3212 3211 3211 3210 3209 3209 3208 3208 3208 3207 3207 3206 3205 3205 3204 3203 3202 3202 3201 3200 3199 3198 3197 3196
3211 3212 3212 3213 3214 3215 3216 3217 3218 3219 3220 3221 3222 3223 3224 3225 3225 3226 3227 3227 3227 3227 3228 3228 3228 3228 3228 3227 3227 3227 3227 3226 3226 3225 3225 3225 3224 3224 3223 3223 3222 3222 3221 3221 3220 3220 3220 3220 3219 3219 3218 3218 3217 3216 3216 3215 3214 3214 3213 3212 3211 3211 3210 3209 3209 3208 3208 3207 3207 3206 3206 3205 3204 3204 3203 3203 3202 3201 3200 3199 3198 3197 3196 3195 3194
3209 3210 3210 3211 3212 3213 3214 3215 3216 3217 3218 3219 3221 3222 3223 3223 3224 3225 3225 3226 3226 3226 3227 3227 3227 3227 3227 3227 3227 3227 3226 3226 3225 3225 3224 3224 3223 3223 3223 3223 3222 3222 3221 3220 3220 3220 3219 3219 3219 3218 3218 3217 3217 3216 3215 3214 3213 3213 3212 3211 3211 3210 3209 3208 3207 3207 3206 3206 3205 3204 3204 3203 3202 3202 3201 3201 3200 3199 3199 3198 3197 3196 3195 3194 3193
3208 3208 3208 3209 3210 3211 3212 3213 3214 3215 3216 3218 3219 3220 3221 3222 3222 3223 3224 3224 3225 3225 3226 3226 3226 3226 3226 3226 3226 3226 3225 3225 3225 3224 3223 3223 3222 3222 3222 3222 3221 3221 3221 3220 3220 3219 3219 3218 3218 3217 3217 3216 3216 3215 3214 3214 3213 3212 3211 3211 3210 3209 3208 3207 3206 3205 3205 3204 3203 3202 3202 3201 3200 3200 3199 3198 3198 3197 3196 3196 3195 3194 3193 3192 3191
3206 3206 3207 3207 3208 3209 3210 3211 3212 3213 3214 3216 3217 3218 3220 3220 3221 3222 3222 3222 3223 3224 3224 3225 3225 3225 3225 3225 3225 3225 3224 3224 3223 3223 3222 3222 3221 3221 3221 3220 3220 3220 3220 3219 3219 3218 3218 3217 3217 3216 3215 3215 3215 3214 3213 3213 3212 3211 3210 3209 3209 3208 3207 3206 3205 3204 3203 3202 3201 3200 3199 3199 3198 3198 3197 3196 3195 3195 3194 3193 3192 3191 3191 3190 3189
3203 3204 3205 3205 3206 3207 3208 3209 3210 3211 3212 3213 3215 3216 3218 3219 3220 3220 3221 3221 3222 3222 3223 3223 3224 3224 3224 3224 3224 3223 3223 3223 3222 3222 3221 3221 3220 3220 3219 3219 3218 3218 3218 3218 3217 3217 3216 3215 3215 3215 3214 3214 3213 3212 3211 3211 3210 3209 3209 3208 3207 3206 3205 3204 3203 3202 3201 3200 3199 3199 3198 3197 3196 3196 3195 3194 3193 3192 3191 3190 3189 3188 3188 3187 3186
3201 3202 3202 3203 3203 3204 3205 3206 3207 3208 3210 3211 3212 3214 3215 3217 3218 3219 3219 3220 3220 3221 3221 3221 3222 3222 3223 3222 3222 3222 3222 3221 3221 3220 3220 3219 3219 3218 3218 3217 3217 3216 3216 3216 3215 3215 3214 3213 3212 3212 3212 3212 3211 3210 3209 3209 3208 3207 3207 3206 3205 3205 3204 3202 3201 3200 3199 3198 3198 3197 3196 3195 3194 3193 3192 3192 3191 3190 3189 3188 3186 3185 3184 3183 3182
3198 3199 3200 3200 3201 3202 3203 3204 3205 3206 3207 3209 3210 3211 3213 3215 3216 3217 3218 3218 3219 3219 3219 3219 3220 3221 3221 3221 3221 3220 3220 3220 3220 3219 3218 3218 3217 3217 3216 3216 3215 3215 3214 3214 3213 3213 3212 3211 3210 3210 3210 3209 3209 3208 3207 3207 3206 3206 3205 3204 3203 3203 3202 3200 3199 3198 3197 3196 3195 3194 3193 3192 3191 3190 3189 3189 3188 3187 3186 3185 3183 3182 3181 3179 3178
3195 3196 3197 3198 3199 3199 3200 3201 3202 3203 3205 3206 3207 3208 3210 3212 3214 3215 3216 3216 3217 3217 3217 3218 3218 3218 3219 3219 3219 3218 3218 3218 3218 3218 3217 3217 3216 3216 3215 3215 3214 3213 3213 3212 3212 3211 3210 3209 3209 3208 3207 3207 3207 3206 3205 3205 3204 3204 3203 3202 3201 3201 3200 3199 3197 3196 3195 3194 3193 3191 3190 3189 3187 3187 3186 3185 3185 3184 3182 3181 3180 3179 3178 3176 3175
3192 3193 3194 3195 3196 3196 3197 3198 3199 3200 3202 3203 3204 3205 3207 3209 3211 3212 3213 3214 3215 3215 3216 3216 3216 3216 3216 3216 3216 3216 3216 3216 3216 3216 3216 3215 3215 3214 3213 3213 3213 3212 3211 3211 3210 3210 3209 3208 3208 3207 3206 3205 3205 3204 3204 3203 3202 3201 3201 3200 3200 3199 3198 3197 3196 3194 3193 3191 3190 3188 3187 3186 3184 3184 3183 3182 3181 3180 3179 3178 3177 3176 3174 3173 3172
3188 3189 3191 3192 3193 3193 3194 3195 3196 3197 3199 3201 3202 3203 3205 3206 3208 3209 3211 3212 3213 3213 3213 3214 3214 3214 3214 3214 3214 3214 3214 3214 3214 3214 3214 3213 3213 3212 3212 3211 3211 3210 3210 3209 3209 3208 3208 3207 3206 3206 3205 3204 3203 3202 3202 3201 3201 3200 3199 3198 3197 3197 3195 3194 3194 3192 3190 3189 3187 3186 3185 3184 3182 3181 3180 3179 3178 3177 3176 3175 3174 3172 3171 3169 3168
3184 3185 3187 3188 3189 3190 3191 3192 3193 3194 3196 3198 3199 3200 3202 3204 3205 3206 3208 3209 3210 3211 3211 3211 3212 3212 3212 3212 3211 3211 3211 3212 3212 3211 3211 3211 3211 3210 3210 3209 3209 3208 3207 3207 3207 3206 3206 3205 3204 3204 3203 3202 3201 3201 3200 3199 3198 3198 3197 3196 3195 3194 3193 3192 3191 3190 3189 3187 3185 3183 3182 3181 3180 3179 3177 3176 3175 3174 3172 3171 3170 3169 3167 3165 3164
3180 3182 3183 3185 3185 3186 3188 3189 3190 3191 3193 3194 3196 3198 3199 3201 3202 3203 3204 3206 3207 3208 3208 3209 3209 3209 3209 3209 3209 3209 3209 3209 3209 3209 3209 3208 3208 3208 3208 3207 3207 3206 3205 3204 3204 3203 3203 3202 3202 3201 3200 3200 3199 3198 3197 3197 3196 3195 3195 3194 3193 3191 3190 3189 3188 3187 3186 3185 3182 3180 3179 3178 3177 3176 3175 3173 3172 3171 3169 3168 3167 3165 3163 3161 3160
3177 3178 3179 3181 3182 3183 3185 3186 3187 3188 3190 3191 3192 3194 3196 3198 3199 3200 3201 3202 3204 3204 3205 3206 3207 3207 3207 3207 3206 3206 3206 3207 3207 3207 3206 3206 3205 3205 3205 3204 3204 3203 3202 3202 3201 3200 3199 3199 3198 3198 3197 3197 3196 3195 3194 3194 3193 3192 3192 3191 3190 3188 3187 3186 3185 3184 3183 3181 3180 3178 3176 3174 3173 3172 3171 3170 3169 3167 3166 3165 3163 3161 3159 3157 3155
3174 3174 3176 3178 3179 3180 3181 3183 3184 3185 3186 3187 3189 3191 3193 3194 3195 3196 3198 3199 3200 3201 3202 3203 3204 3204 3205 3205 3204 3204 3204 3204 3205 3204 3203 3203 3203 3202 3202 3202 3201 3201 3200 3199 3198 3197 3196 3195 3195 3195 3194 3194 3193 3192 3191 3190 3190 3189 3188 3187 3186 3185 3183 3182 3181 3180 3179 3178 3177 3175 3173 3172 3171 3169 3168 3167 3165 3164 3163 3161 3159 3156 3154 3153 3152
3171 3172 3173 3174 3175 3176 3178 3179 3181 3182 3183 3184 3185 3187 3189 3191 3192 3193 3194 3196 3197 3198 3199 3200 3201 3201 3202 3202 3201 3201 3201 3202 3202 3201 3201 3201 3200 3200 3200 3200 3199 3198 3197 3196 3195 3194 3193 3192 3192 3192 3191 3191 3190 3189 3188 3187 3186 3185 3185 3184 3183 3182 3181 3179 3178 3177 3176 3175 3174 3172 3170 3169 3169 3167 3165 3163 3162 3160 3158 3157 3155 3152 3150 3149 3148
3168 3169 3170 3171 3172 3173 3174 3175 3177 3178 3179 3180 3181 3184 3186 3187 3189 3190 3191 3192 3193 3194 3195 3197 3198 3198 3199 3199 3199 3199 3199 3199 3199 3199 3198 3198 3198 3197 3197 3197 3196 3195 3194 3193 3192 3192 3191 3190 3189 3189 3188 3188 3187 3186 3185 3184 3183 3182 3181 3181 3180 3179 3178 3177 3175 3174 3173 3173 3171 3170 3168 3167 3167 3165 3162 3161 3159 3157 3154 3152 3151 3149 3146 3145 3143
3166 3167 3167 3168 3169 3169 3171 3172 3173 3174 3175 3176 3178 3181 3183 3184 3185 3186 3188 3189 3190 3191 3191 3193 3194 3195 3195 3196 3196 3195 3195 3196 3196 3196 3195 3195 3195 3194 3193 3194 3193 3193 3192 3191 3190 3189 3188 3187 3186 3186 3185 3185 3184 3183 3183 3182 3181 3180 3179 3178 3177 3176 3175 3174 3173 3171 3170 3170 3169 3167 3166 3165 3164 3162 3160 3158 3156 3154 3151 3148 3147 3145 3143 3141 3140
3163 3164 3164 3165 3166 3167 3167 3168 3169 3170 3171 3173 3175 3177 3179 3181 3182 3183 3184 3185 3186 3187 3187 3189 3190 3191 3192 3192 3192 3192 3192 3192 3193 3193 3192 3192 3192 3191 3190 3190 3190 3190 3189 3188 3187 3186 3185 3184 3183 3183 3182 3182 3181 3181 3180 3179 3178 3177 3176 3175 3174 3173 3172 3172 3171 3169 3167 3166 3165 3164 3163 3162 3160 3158 3157 3154 3152 3150 3148 3146 3144 3142 3140 3138 3137
3160 3161 3161 3162 3163 3163 3164 3165 3166 3167 3168 3169 3172 3174 3175 3177 3178 3179 3180 3180 3181 3182 3183 3184 3186 3187 3187 3188 3188 3187 3188 3189 3189 3189 3189 3189 3189 3188 3187 3186 3186 3187 3186 3185 3185 3183 3182 3181 3180 3180 3179 3179 3178 3178 3177 3177 3175 3174 3173 3172 3171 3170 3170 3169 3168 3167 3165 3163 3162 3160 3159 3159 3157 3155 3153 3151 3149 3147 3144 3142 3141 3139 3137 3135 3134
3156 3157 3158 3158 3159 3160 3161 3161 3162 3163 3164 3165 3168 3170 3171 3173 3175 3175 3176 3176 3177 3178 3179 3180 3181 3182 3183 3183 3183 3183 3184 3185 3186 3186 3186 3186 3185 3185 3184 3183 3183 3183 3183 3183 3182 3181 3179 3178 3177 3177 3177 3176 3175 3175 3174 3173 3172 3171 3170 3169 3168 3167 3167 3166 3164 3163 3162 3160 3159 3158 3156 3154 3153 3151 3150 3148 3146 3144 3141 3139 3138 3136 3134 3132 3130
3152 3153 3154 3155 3156 3157 3157 3157 3158 3159 3160 3161 3163 3166 3167 3169 3171 3171 3171 3171 3172 3173 3174 3175 3176 3177 3178 3178 3179 3179 3179 3180 3182 3183 3183 3182 3182 3181 3181 3181 3180 3180 3180 3179 3179 3178 3176 3175 3175 3174 3173 3173 3172 3172 3171 3170 3169 3168 3167 3166 3166 3165 3164 3163 3161 3160 3159 3156 3154 3154 3153 3151 3149 3148 3147 3146 3143 3141 3139 3136 3134 3133 3131 3129 3127
3149 3149 3150 3151 3151 3152 3153 3154 3154 3155 3156 3158 3159 3161 3163 3165 3167 3167 3167 3167 3167 3168 3169 3170 3171 3172 3173 3173 3174 3174 3174 3175 3178 3179 3179 3178 3178 3177 3177 3177 3177 3177 3176 3176 3175 3174 3173 3172 3172 3171 3170 3170 3169 3168 3167 3166 3165 3164 3164 3163 3163 3162 3161 3160 3158 3157 3155 3152 3150 3150 3149 3147 3146 3144 3144 3143 3141 3139 3137 3134 3131 3129 3127 3125 3123
3145 3145 3146 3146 3147 3149 3149 3150 3150 3151 3153 3154 3155 3157 3159 3161 3162 3162 3162 3162 3162 3162 3163 3164 3166 3167 3168 3168 3169 3170 3170 3171 3173 3175 3175 3174 3173 3173 3173 3173 3173 3173 3172 3172 3172 3171 3170 3169 3169 3168 3167 3166 3166 3165 3164 3163 3162 3162 3161 3160 3159 3158 3157 3156 3155 3154 3152 3149 3147 3147 3146 3144 3143 3142 3141 3141 3139 3136 3134 3131 3128 3125 3123 3122 3120
3141 3142 3142 3143 3144 3145 3145 3146 3147 3148 3149 3149 3151 3152 3154 3156 3157 3157 3158 3158 3157 3158 3158 3159 3161 3162 3163 3163 3165 3166 3166 3166 3168 3171 3171 3170 3170 3169 3169 3169 3169 3169 3168 3169 3169 3168 3166 3166 3165 3165 3164 3163 3162 3161 3160 3160 3159 3159 3158 3157 3156 3155 3154 3153 3151 3150 3149 3146 3145 3145 3144 3142 3141 3140 3138 3137 3137 3134 3131 3128 3125 3122 3120 3118 3117
3137 3137 3138 3138 3139 3139 3140 3141 3141 3142 3143 3144 3145 3147 3148 3150 3151 3152 3152 3153 3152 3152 3153 3155 3156 3157 3158 3159 3160 3162 3161 3161 3163 3166 3166 3165 3166 3165 3166 3166 3165 3165 3165 3165 3165 3164 3163 3162 3162 3161 3161 3160 3159 3158 3157 3157 3156 3156 3155 3154 3153 3152 3151 3150 3148 3147 3146 3143 3142 3142 3142 3140 3139 3137 3135 3133 3132 3131 3129 3126 3123 3120 3117 3115 3114